Helicity
64 68 71 72 66 58 54 51 50 45 41 44 50 57 68 69 86 65 31 58 76 80 103 124 135 136 161 129 128 144 163 67 39 68 41 7 60 9 98 163 119 146 196 210 194
53 52 56 54 48 47 43 39 36 29 27 27 27 31 40 51 61 48 14 22 54 67 81 123 164 194 170 164 155 197 204 64 142 95 46 38 -22 -50 45 87 132 190 162 153 176
40 46 47 42 37 33 27 16 7 3 2 5 12 24 31 37 -22 36 28 26 58 106 101 91 126 195 164 173 183 240 125 115 117 53 58 43 -1 -121 35 92 96 120 101 98 173
43 46 42 35 23 13 7 6 2 -2 -8 -2 3 13 29 16 49 111 91 81 24 76 167 174 127 170 205 194 186 185 73 89 78 127 91 70 20 -79 34 82 182 80 120 147 188
37 30 25 22 24 22 13 3 -8 -8 -9 -7 -15 -14 -2 7 24 189 266 249 263 144 158 221 262 140 148 184 157 197 60 98 62 79 103 96 38 13 71 58 73 118 116 188 133
28 27 26 26 27 23 7 2 0 1 -1 -7 -19 -23 -47 -84 27 85 201 251 271 252 215 233 239 150 145 146 172 188 88 100 100 92 96 109 25 86 96 29 76 57 117 70 59
26 21 24 31 33 36 11 -5 20 8 0 -13 -25 -39 -95 -154 -1 12 128 154 142 71 123 170 227 304 345 200 107 133 140 131 120 108 124 111 61 73 97 84 43 28 91 59 44
20 24 30 34 53 57 58 56 -8 -66 -38 -37 -15 -43 -45 -71 -28 -41 -20 31 67 97 104 47 152 326 303 253 277 237 189 216 120 126 112 157 129 59 114 161 124 74 84 107 96
3 21 34 50 74 74 62 106 5 -63 19 25 -11 -16 -65 41 -11 2 27 -13 24 39 148 156 54 245 253 309 269 259 293 247 155 131 147 158 105 54 120 179 136 131 79 94 171
-7 13 45 67 68 57 129 137 -6 8 21 20 -8 17 43 46 22 17 49 19 67 25 106 221 227 229 225 262 291 277 253 276 170 172 154 193 119 105 107 137 124 161 166 125 101
-10 -6 34 47 57 62 125 17 40 23 26 -14 -21 -20 21 134 131 73 40 -3 13 -12 112 182 314 299 225 261 272 232 182 191 129 208 132 126 159 108 104 130 127 128 157 128 161
-10 0 28 34 35 43 11 44 54 53 -2 -14 9 47 71 144 143 118 87 5 0 -30 22 188 208 186 151 183 220 259 276 184 148 98 104 135 96 89 114 138 125 70 123 63 147
-9 -1 22 41 26 3 35 46 102 77 49 26 69 73 81 85 91 129 54 12 16 -33 -5 175 143 105 120 124 184 195 265 244 228 100 66 57 119 100 86 97 166 84 135 79 133
-5 -5 24 52 14 39 45 34 114 68 105 37 53 71 105 99 75 80 21 12 30 -2 19 16 8 143 128 89 100 171 171 177 241 224 216 54 160 95 144 110 77 139 44 128 158
-1 -9 13 25 30 32 20 11 72 32 147 62 53 69 55 47 35 23 16 8 -17 40 2 23 37 111 138 107 51 108 99 177 192 91 91 138 110 27 80 66 5 232 191 87 64
-5 -10 0 23 55 28 5 -3 39 96 106 83 26 44 53 53 41 0 42 -4 36 32 5 88 103 147 119 123 43 34 91 87 96 87 133 178 207 -4 103 65 80 186 169 109 108
-15 -18 -11 -2 33 -17 2 40 102 110 78 101 59 56 67 63 40 18 -22 8 -12 46 112 68 113 156 118 184 131 37 28 159 201 149 142 102 210 200 -25 82 88 66 99 83 122
-14 -17 5 -3 -3 9 33 74 102 81 105 43 58 52 105 50 51 46 -15 -55 -41 -38 24 116 30 66 92 349 188 210 105 171 257 208 172 49 149 146 118 120 104 119 53 119 194
-17 20 27 22 38 19 68 77 96 94 83 74 66 120 108 59 51 50 56 30 -24 1 8 -27 36 -33 94 291 166 144 117 74 53 156 119 110 24 27 73 19 151 82 168 286 250
13 19 34 37 16 28 79 64 67 57 57 79 132 117 111 78 90 69 73 96 20 16 -44 -10 -27 -77 38 172 157 119 116 109 125 161 269 233 238 205 281 237 168 318 424 515 467
25 47 16 11 23 53 66 58 68 48 91 87 91 94 71 79 73 80 92 58 48 89 18 -30 -61 66 -20 179 160 133 53 147 135 145 183 230 256 322 546 582 563 435 488 665 595
60 71 13 22 81 52 50 45 46 48 68 77 84 85 97 75 72 106 103 55 41 38 -15 -19 -24 83 18 83 88 252 151 117 180 183 168 81 261 434 580 703 583 680 692 656 591
79 71 38 62 88 51 35 36 38 39 32 84 83 65 52 75 122 87 73 29 -27 -4 14 17 4 85 75 59 146 108 42 -4 78 188 99 179 125 127 337 404 429 438 527 584 509
100 83 64 68 49 60 53 60 54 21 29 42 59 41 62 87 98 112 79 60 -24 3 -54 -42 -7 27 34 48 26 45 30 -22 -14 107 96 98 251 161 -15 51 217 217 416 318 285
107 66 66 72 56 57 22 77 47 41 64 61 49 30 61 77 101 120 45 25 -22 1 -26 -12 13 -25 13 60 80 114 100 56 -6 -13 -19 48 -9 11 25 -22 -30 -32 -8 221 277
111 97 79 60 64 86 89 71 62 18 64 71 84 45 68 112 118 93 56 51 90 30 43 53 6 -73 -60 34 40 60 51 14 25 12 -2 25 40 -7 -10 0 -67 -81 7 85 107
98 104 105 70 90 105 92 90 62 28 38 43 50 59 58 57 48 69 98 85 70 59 41 46 72 16 -56 43 16 43 49 97 85 36 14 6 9 7 34 44 90 151 167 126 109
Wind_Speed
38 39 40 42 43 45 47 49 52 54 57 59 62 66 69 73 77 73 71 55 58 64 64 69 67 67 68 59 63 62 79 101 105 93 93 87 69 59 43 35 37 31 25 11 13
39 40 41 42 44 47 49 51 53 56 59 61 64 67 71 75 77 73 58 66 70 63 68 70 70 69 74 63 57 69 90 108 82 85 94 91 70 61 65 51 35 17 7 10 13
35 37 40 42 44 45 48 51 55 60 63 65 68 69 72 75 65 50 44 45 48 55 64 69 71 73 88 81 69 73 108 102 92 90 92 97 82 62 66 52 50 27 20 18 17
38 39 40 42 45 47 51 57 62 63 64 66 68 70 75 59 68 46 57 63 58 57 62 66 67 75 81 89 76 87 111 100 104 94 93 99 86 81 70 64 56 45 30 29 26
43 44 44 45 48 53 59 62 61 57 58 60 63 62 62 64 66 66 73 73 72 65 70 71 76 73 92 79 85 97 108 97 100 101 108 97 99 87 80 68 59 46 29 31 35
48 49 50 52 55 58 59 62 58 50 48 52 55 56 59 80 61 76 78 75 74 77 80 77 75 71 86 90 94 86 100 96 90 93 104 103 106 83 92 72 67 53 43 31 30
50 51 53 55 55 52 59 59 43 45 51 52 50 52 59 67 59 67 72 73 82 79 88 85 80 78 73 91 91 97 112 106 99 92 99 95 113 106 103 79 74 71 64 53 49
50 52 53 54 54 51 51 12 38 34 43 46 44 49 61 55 56 66 69 79 78 73 81 85 85 89 87 80 86 94 100 116 113 95 93 76 124 123 103 89 88 94 80 76 68
47 52 53 54 53 57 61 23 20 23 33 39 46 50 63 59 67 68 68 83 82 85 81 75 79 87 86 90 97 95 112 111 116 96 90 80 121 112 92 85 95 96 103 92 84
41 52 52 51 50 58 58 6 35 40 40 34 39 54 51 72 67 75 67 80 76 80 85 81 77 93 89 94 117 105 105 103 119 95 90 91 105 95 86 74 81 89 94 97 98
37 46 51 51 49 55 68 47 53 50 52 50 48 47 51 46 48 60 67 74 62 66 82 80 89 108 102 95 96 93 103 106 109 89 91 109 104 100 81 77 91 87 85 87 92
26 18 4 43 44 39 52 54 51 43 52 42 36 37 39 41 54 56 55 75 60 66 69 80 100 94 91 93 101 102 105 112 106 89 99 98 110 108 91 83 80 90 86 90 86
25 22 11 6 18 32 55 51 41 41 44 50 46 47 49 46 46 53 70 76 70 61 67 78 82 82 93 94 103 108 108 102 103 92 89 99 106 106 108 81 79 79 77 79 74
30 28 15 4 34 38 49 50 38 41 48 59 61 48 48 46 42 43 70 70 53 50 54 63 74 79 85 96 95 111 99 99 99 98 104 85 113 108 89 92 89 84 78 75 71
33 36 18 27 31 44 44 42 37 38 60 43 54 36 46 61 54 51 63 60 68 51 46 57 58 64 81 87 85 106 87 94 92 94 89 100 75 101 89 99 91 76 70 78 77
31 38 47 39 30 34 44 31 33 48 57 45 49 44 58 62 58 50 53 71 47 50 48 69 65 65 68 71 78 83 86 96 90 86 108 108 86 92 72 78 64 55 67 72 78
26 31 36 27 33 41 36 35 47 56 41 49 49 43 55 64 58 58 63 77 74 61 60 45 33 45 38 58 63 70 72 82 99 92 101 86 89 102 61 59 62 49 57 61 60
18 16 23 20 22 35 36 42 51 42 43 43 39 43 51 63 55 56 56 69 60 62 47 40 38 45 50 45 56 64 68 78 98 100 89 71 80 97 87 82 69 59 39 30 38
22 25 25 26 26 33 39 45 42 40 43 42 35 49 51 54 54 55 59 63 54 54 54 45 46 40 47 50 46 47 54 70 76 76 80 75 64 61 78 79 80 72 40 27 19
33 26 24 26 31 33 37 39 37 32 38 37 47 43 47 50 52 53 59 59 51 33 52 46 45 43 51 40 29 38 43 53 53 72 83 75 69 56 41 48 47 37 28 22 21
27 29 25 25 29 33 35 33 31 29 38 38 37 36 37 46 44 43 47 41 44 32 61 41 35 44 36 28 33 37 43 44 49 54 54 71 54 34 35 30 24 21 24 28 28
27 29 23 27 28 30 31 32 35 30 32 25 27 31 41 38 40 44 36 43 32 34 31 34 37 44 14 26 27 27 33 43 51 56 52 54 41 33 39 36 37 36 33 35 36
27 26 29 25 29 28 26 25 30 30 27 35 33 30 30 36 41 37 33 27 36 49 41 17 35 36 40 30 34 35 39 35 41 45 46 61 49 41 46 43 44 44 47 43 43
29 28 27 27 25 22 28 28 29 26 26 25 25 25 28 33 33 31 30 27 29 31 39 32 27 39 41 51 58 55 51 43 39 46 62 59 69 61 51 50 52 48 55 53 57
27 28 24 28 24 20 19 24 28 30 23 30 33 29 27 37 33 36 30 31 27 22 18 28 23 5 54 63 64 68 65 59 52 50 64 71 72 70 67 69 60 58 53 61 60
25 28 29 29 22 20 20 27 28 23 20 26 24 28 40 36 28 33 35 33 30 26 17 14 18 4 39 55 59 73 70 67 65 65 68 70 75 66 63 63 66 54 55 49 44
28 30 29 33 29 21 14 16 20 18 28 31 26 27 30 30 35 29 27 24 15 16 16 12 15 19 11 56 62 47 38 49 57 57 55 64 65 63 56 47 36 38 44 51 54
Wind_Direction
327 325 324 325 326 327 328 329 328 328 327 327 323 320 316 310 306 303 293 294 291 289 288 285 281 276 274 272 268 267 256 251 247 250 248 249 263 284 282 283 290 291 280 211 171
337 333 329 328 325 324 322 319 319 321 323 324 324 322 318 314 308 303 304 294 287 290 284 279 276 273 268 269 266 255 252 249 255 255 250 250 265 280 285 266 277 287 268 217 188
317 317 317 315 312 308 308 309 310 321 322 323 324 324 322 318 316 313 322 321 312 296 283 279 274 272 263 261 258 259 251 252 255 254 255 252 263 283 282 267 261 258 248 231 221
314 310 307 307 306 305 305 311 324 330 330 331 331 330 326 328 307 319 315 308 306 297 287 280 272 265 265 257 259 258 254 256 254 256 257 254 262 267 274 272 274 271 253 238 229
321 315 308 306 305 309 316 319 339 348 347 344 342 341 338 322 311 315 313 305 298 293 283 278 272 264 260 263 259 257 256 259 259 259 254 261 256 260 265 272 272 279 258 239 243
334 326 318 316 317 316 314 343 351 360 2 357 354 352 342 321 326 316 311 304 297 287 280 276 271 268 265 261 257 258 259 261 261 260 256 256 255 261 256 267 266 269 277 257 242
334 328 325 322 312 300 311 353 12 12 6 4 4 358 346 338 340 329 313 302 296 286 276 271 270 269 271 262 258 257 257 258 257 258 256 257 255 252 250 261 264 262 266 272 266
332 326 320 314 307 300 298 295 15 19 14 12 12 5 347 349 342 330 318 306 297 289 278 270 265 266 264 265 263 255 255 252 251 254 256 254 251 249 251 255 257 255 262 265 268
4 327 318 313 307 312 310 279 29 32 23 20 13 5 352 355 341 336 326 307 295 285 281 276 261 259 260 258 252 250 249 250 252 251 253 249 251 252 254 256 256 257 256 260 265
23 348 317 310 307 318 312 16 34 30 24 24 11 1 3 351 348 338 337 319 298 283 273 267 260 252 252 247 243 244 248 251 250 251 252 253 254 256 257 257 257 259 259 259 260
31 10 315 311 308 319 355 27 15 16 19 18 13 9 358 1 360 351 347 335 317 285 266 261 253 244 245 247 251 251 250 252 254 255 253 253 256 255 256 259 259 260 259 259 260
56 74 156 301 299 299 27 25 28 27 18 27 17 8 8 10 357 359 1 328 319 295 277 260 251 249 249 249 249 250 252 251 255 257 255 255 254 256 256 257 258 259 260 258 261
54 63 88 218 255 45 26 34 46 41 31 29 28 23 15 13 7 7 354 340 306 300 279 265 258 253 247 246 246 247 249 252 254 257 259 257 257 256 254 258 255 259 258 257 261
32 45 75 224 47 39 29 30 46 41 29 25 28 31 23 21 28 23 359 352 336 304 295 272 263 254 249 246 245 246 250 253 256 255 253 259 257 256 258 257 256 253 257 255 260
18 21 72 59 55 31 29 34 50 47 19 28 27 27 30 27 25 32 11 16 338 310 306 282 275 261 254 249 245 247 252 252 257 256 259 254 260 256 261 257 261 248 248 256 260
21 7 344 34 54 42 25 52 52 33 24 35 29 25 31 31 34 34 35 0 21 342 319 279 265 270 263 259 252 248 249 255 255 256 252 249 257 256 262 249 264 252 257 262 261
39 22 9 45 39 27 40 47 28 27 37 28 26 25 36 31 32 33 31 15 352 329 311 311 301 294 296 260 257 248 246 249 244 246 249 253 255 252 260 257 256 274 272 266 268
81 79 44 62 63 39 45 33 26 35 35 32 32 35 38 33 35 33 38 29 31 339 314 302 298 306 292 272 259 260 239 244 242 244 250 254 258 252 255 256 257 275 285 294 280
24 57 63 43 54 45 37 26 32 37 33 33 34 38 35 36 37 36 40 38 41 330 333 304 290 289 299 282 266 254 254 247 253 258 252 252 264 273 260 257 258 266 282 285 289
1 39 53 56 32 41 30 27 34 46 37 41 35 41 30 32 36 38 39 42 39 46 332 300 290 300 305 289 274 272 272 252 247 252 246 252 255 269 287 270 260 263 281 290 293
12 18 51 57 34 25 22 30 38 49 41 41 39 38 34 33 35 39 40 44 40 40 355 302 289 297 296 311 284 282 266 268 258 257 258 243 249 290 285 292 284 286 294 295 297
356 359 56 51 26 27 22 30 31 41 46 48 50 43 39 36 37 43 38 40 37 37 49 294 283 302 17 336 342 304 298 276 258 252 260 260 258 295 292 291 295 286 295 299 295
341 355 13 32 8 15 30 31 31 31 41 38 38 43 43 39 39 37 39 38 37 41 50 72 305 306 292 297 307 320 297 299 271 260 263 254 247 313 287 289 290 292 291 291 294
328 338 347 2 12 16 9 17 23 36 41 46 43 42 40 38 43 38 35 36 34 47 50 59 82 314 304 291 288 295 296 291 281 267 258 267 264 277 283 289 285 290 279 282 279
321 327 350 352 1 13 24 18 16 21 39 36 33 36 37 28 34 38 25 28 31 44 50 54 60 172 284 291 285 284 283 284 284 280 267 270 274 278 280 284 282 279 282 281 277
309 321 329 333 357 20 19 8 2 14 27 23 29 27 23 27 31 23 23 25 34 39 36 54 54 265 264 298 298 289 283 277 279 280 276 275 273 283 289 294 289 283 285 289 297
299 312 321 324 334 349 11 19 20 31 13 11 21 20 21 24 25 25 23 19 10 15 27 34 43 25 32 296 297 316 312 292 290 288 286 281 288 294 299 306 301 299 299 300 299